Location: Gleizolles
(44.4833°N, 6.7667°E)
Time: 14:03:45
(UTC+00:00)

deb Explorer IX - Pass Details

Date: 29 June 2024
Orbit: 510 x 878 km, 38.7° (Epoch: 21 July)

Event Time Altitude Azimuth Distance (km) Brightness Sun altitude
Rises 04:43:35 0° 221° (SW) 2,599 ? 7.2°
Reaches altitude 10° 04:46:14 10° 203° (SSW) 1,728 ? 7.7°
Maximum altitude 04:49:03 19° 156° (SSE) 1,289 ? 8.1°
Drops below altitude 10° 04:51:58 10° 111° (ESE) 1,802 ? 8.6°
Sets 04:54:47 0° 93° (E) 2,753 ? 9.1°
